RH
51 53 53 52 52 53 54 55 55 54 53 52 50 48 47 44 41 37 34 29 24 19 16 14 13 13 12 12 11 11 11 11 11 11 10 10 10 9 9 9 9 10 10 11 11 12 13 17 19 20 19 20 21 22 20 19 18 18 18 18 18 18 17 17 16 16 16 16 16 16 16 16 16 16 16 16 16 16 15 15 15 15 15 15 14 14 14 13 13 14 14 15 16 17 18 18 18 18 20 21 22 24 25
56 57 56 55 54 54 55 55 54 53 52 50 48 46 43 40 37 33 29 24 20 16 14 13 12 12 12 11 11 11 11 10 10 10 10 10 10 10 10 10 10 11 12 12 13 14 14 18 20 20 20 21 21 21 20 19 18 17 16 17 17 17 17 16 16 16 16 16 16 16 15 15 15 15 16 15 15 15 15 15 15 15 16 15 15 14 13 13 13 13 14 14 15 15 16 15 15 15 15 16 18 19 21
60 60 59 57 56 54 54 53 52 51 49 47 45 42 39 36 32 28 24 20 17 15 13 12 12 12 12 11 11 10 10 10 10 10 10 10 10 10 11 11 12 12 13 14 14 15 15 18 19 20 21 21 21 21 20 18 17 16 15 15 15 16 16 16 16 16 16 16 16 16 16 15 15 15 15 14 14 14 15 14 14 15 15 15 15 15 14 14 14 14 14 14 14 14 15 15 15 15 15 15 15 16 17
64 62 61 59 56 54 53 51 50 47 45 43 40 38 34 31 27 24 20 18 16 14 12 12 12 12 12 11 11 10 9 9 10 10 10 11 11 12 12 13 14 14 15 15 15 16 17 18 20 21 21 22 22 21 20 18 17 15 14 14 15 15 15 15 15 15 15 15 15 15 16 15 15 14 14 14 14 14 14 14 14 14 14 15 15 15 15 16 16 15 15 15 15 15 15 14 14 14 14 14 14 15 15
65 64 62 59 55 53 52 50 48 45 42 40 37 34 30 27 24 21 18 16 15 14 13 13 14 14 12 11 10 9 9 10 10 11 12 12 13 14 14 15 16 16 16 17 16 16 17 20 21 22 23 23 22 20 19 18 17 16 15 15 15 15 15 15 15 15 15 14 14 14 14 14 14 14 14 14 14 14 15 15 15 15 15 15 15 16 16 16 16 16 16 16 16 15 15 14 14 14 14 14 14 15 15
66 64 61 58 55 53 51 49 46 43 41 38 35 31 28 25 22 20 18 16 15 14 13 14 14 14 13 11 10 10 10 11 12 12 13 14 15 15 16 17 17 17 17 17 16 17 18 21 22 23 25 25 24 22 19 18 17 17 16 16 15 15 15 15 14 14 14 14 14 14 14 14 14 13 13 14 14 14 15 15 15 15 15 15 16 16 16 16 17 17 17 17 17 17 16 16 15 15 15 15 15 15 15
66 63 60 56 54 53 51 48 45 42 40 37 33 30 27 24 22 20 19 17 16 14 14 13 13 13 12 11 10 11 11 12 13 14 15 15 16 16 17 17 17 17 17 17 16 16 17 19 21 23 25 27 27 25 21 18 17 17 17 16 15 15 15 15 15 15 14 14 14 14 14 14 14 14 14 14 14 15 15 15 15 15 15 15 16 16 16 17 17 18 18 18 18 18 17 17 17 17 17 17 17 17 17
65 61 57 55 54 52 50 46 43 41 38 35 32 29 26 24 22 20 20 18 16 14 13 13 12 12 12 11 11 12 13 14 15 15 16 16 16 16 17 17 17 16 16 16 16 16 16 18 20 22 25 27 28 26 23 18 16 16 17 16 16 15 15 15 15 15 15 15 15 15 15 15 14 14 14 14 14 14 15 15 15 15 15 15 15 16 16 16 17 17 18 18 18 18 18 18 18 18 19 19 19 19 19
62 59 54 53 52 51 48 44 42 39 37 34 31 29 26 24 22 20 19 17 15 14 13 13 12 12 12 12 13 14 14 15 15 15 15 16 16 16 16 16 16 16 16 16 16 16 15 16 18 21 24 27 27 27 25 20 17 16 17 16 16 16 16 15 15 15 15 15 15 15 15 15 14 14 14 14 14 14 14 14 14 15 15 15 15 15 16 16 16 17 17 18 18 18 19 19 19 19 20 20 20 20 21
59 55 51 51 51 50 46 43 40 38 36 33 30 28 26 23 22 20 18 16 14 14 14 13 13 13 13 14 14 14 14 15 15 15 15 15 16 16 16 16 16 16 15 15 15 15 15 16 17 19 21 24 26 26 25 21 18 16 16 16 16 16 16 15 15 15 15 15 15 15 14 14 14 14 14 14 14 14 14 14 14 14 15 15 15 15 16 16 16 16 17 18 18 19 19 19 20 20 20 20 20 21 22
57 51 48 49 48 46 43 40 38 36 34 32 29 27 24 22 21 20 16 15 14 14 14 14 14 14 14 14 14 14 15 15 15 15 16 16 16 16 16 16 16 15 15 15 15 15 15 15 16 17 18 20 21 22 21 19 17 16 16 16 16 16 16 16 15 15 15 15 15 15 14 14 14 14 14 14 14 14 14 14 14 15 15 15 15 15 16 16 16 17 17 18 19 19 19 20 20 21 21 21 21 22 23
53 48 45 46 45 42 39 37 35 33 31 29 27 25 23 22 20 18 15 14 15 15 15 14 14 14 14 14 14 14 15 15 16 16 16 16 16 16 16 16 15 15 15 15 15 15 15 15 15 15 16 17 17 17 17 17 16 16 16 16 16 16 16 16 16 16 16 15 15 15 15 15 15 15 15 15 15 15 15 15 15 15 15 16 16 16 16 16 17 17 18 19 19 20 20 21 21 22 21 21 22 22 24
49 45 43 42 40 37 34 33 31 29 28 26 25 23 21 21 18 16 14 14 15 15 15 15 14 14 13 14 15 15 16 17 17 17 17 17 17 17 16 16 16 15 15 15 15 16 17 17 17 16 16 15 15 15 15 15 15 16 16 16 16 16 16 16 16 16 16 16 16 16 16 16 16 16 16 16 16 16 16 16 16 17 17 17 17 17 17 18 18 18 19 20 20 21 21 22 22 22 22 22 22 22 23
45 41 39 38 35 33 30 28 27 26 24 23 22 20 19 18 16 15 14 14 15 15 15 14 14 14 14 15 16 17 18 18 18 18 18 18 17 17 17 16 16 16 16 16 16 18 19 20 19 18 17 16 15 14 13 14 15 16 16 17 17 17 17 17 17 17 17 17 18 17 18 18 18 18 18 18 18 18 18 18 18 18 18 19 19 19 19 20 20 20 20 21 22 22 22 23 23 24 24 23 23 23 22
40 37 35 32 30 28 26 25 24 22 22 21 20 19 18 17 15 15 14 15 16 16 15 14 14 15 16 17 18 19 19 19 19 19 18 18 18 18 18 17 17 17 16 16 18 19 20 20 19 18 18 17 16 15 14 15 16 17 17 17 18 18 18 19 19 19 19 19 19 19 19 19 19 19 19 19 19 19 19 19 20 20 20 21 21 21 21 22 22 22 22 22 22 23 23 24 24 25 25 25 24 24 23
36 33 30 27 26 24 23 22 21 21 20 19 18 18 17 16 15 15 15 16 16 16 16 15 16 16 18 19 19 20 20 20 19 19 19 19 19 19 18 18 18 17 17 18 19 20 20 20 19 19 20 20 18 17 15 16 17 18 19 19 19 20 20 20 20 20 20 20 20 20 20 20 20 20 20 20 20 20 20 21 21 21 22 22 23 23 23 23 24 23 24 24 24 24 24 25 25 26 26 26 26 25 24
33 29 26 24 23 22 22 21 20 20 18 18 18 18 17 16 16 16 16 17 17 17 17 17 18 18 20 20 21 21 20 20 20 20 20 20 20 19 19 18 18 18 18 19 21 21 21 20 20 21 22 22 20 19 17 18 19 19 20 20 21 21 21 21 21 21 21 21 21 21 21 21 21 21 21 21 21 21 22 22 22 23 23 24 24 24 24 25 25 25 25 25 25 25 25 26 26 27 27 27 27 27 26
30 27 24 22 22 22 21 21 20 19 18 18 18 18 17 17 17 17 17 18 18 19 19 19 20 20 21 21 21 21 21 21 20 20 20 20 20 20 19 19 19 19 19 20 21 22 22 22 22 23 24 24 22 20 19 19 20 20 21 21 22 22 22 22 22 22 22 22 22 21 21 21 22 22 22 23 23 24 24 24 24 25 25 25 25 25 25 26 26 26 26 26 26 26 26 27 27 28 28 28 29 29 28
28 25 23 22 22 22 22 21 20 19 18 19 19 18 18 18 18 18 18 19 20 20 20 20 21 21 22 22 22 22 21 21 21 21 21 20 20 20 20 19 19 20 21 21 22 23 25 24 25 25 26 25 23 21 20 20 20 21 21 22 22 22 23 23 23 23 23 22 22 22 23 23 23 24 24 25 26 26 26 27 27 26 26 26 26 26 26 26 26 26 27 27 27 27 28 28 29 29 30 30 30 31 31
27 25 23 23 23 23 23 21 20 19 19 19 19 19 19 19 19 19 20 20 21 22 22 21 21 22 22 22 22 22 22 22 21 21 21 21 21 21 20 19 20 21 22 22 22 24 26 26 26 27 27 26 25 22 21 21 21 21 22 22 23 23 23 23 23 23 23 23 23 24 24 24 25 26 27 27 28 29 29 29 29 29 28 28 27 27 26 27 27 27 27 28 29 29 30 31 31 31 32 32 32 32 32
29 27 26 25 25 24 23 22 21 20 19 19 20 20 21 21 20 21 21 22 22 22 22 22 22 22 22 24 25 25 23 22 22 21 21 22 21 21 20 20 21 21 21 22 23 24 25 25 26 28 28 28 27 24 22 22 22 22 22 23 23 23 24 24 24 24 24 24 25 25 26 26 27 28 29 29 30 31 31 31 31 31 30 29 28 28 28 28 28 28 29 30 31 32 33 33 33 34 33 33 33 34 34
31 30 30 28 27 26 24 22 21 21 21 20 22 24 25 24 24 24 23 23 23 23 23 22 23 23 24 27 29 29 26 24 22 21 22 22 21 21 21 21 21 21 22 22 23 23 24 24 26 28 29 30 29 26 23 22 22 22 23 23 24 24 24 24 25 25 25 26 26 27 27 28 29 29 30 30 31 32 32 32 32 32 31 30 30 29 29 29 30 31 32 33 34 34 35 35 35 35 35 34 34 35 35
33 32 32 30 29 27 24 23 23 23 23 22 24 26 27 27 26 25 24 24 24 23 23 23 23 24 26 29 31 31 29 25 23 22 22 22 22 22 22 21 21 21 21 22 22 22 22 23 24 27 29 31 29 26 24 24 24 24 24 24 24 24 25 25 25 26 26 27 28 28 29 29 30 30 30 31 31 32 32 32 33 32 32 32 31 31 31 32 32 33 34 36 37 37 37 37 36 36 35 36 36 36 36
35 34 33 32 30 27 26 25 24 24 24 24 26 28 28 28 27 26 27 26 24 24 24 24 24 26 27 30 32 31 29 26 24 23 23 23 22 23 22 22 21 21 21 21 21 21 21 22 24 26 28 30 29 26 24 24 25 24 25 24 24 25 26 26 26 27 27 28 28 29 29 30 30 30 31 31 31 32 32 32 33 33 33 33 33 33 34 35 35 36 37 38 39 39 39 38 38 37 36 37 37 38 39
36 35 34 32 30 28 27 26 25 25 25 26 28 30 30 28 28 28 30 27 26 25 25 26 27 27 28 30 31 30 28 25 24 24 23 23 23 23 23 22 22 22 22 22 21 21 21 22 23 25 28 29 28 26 25 25 25 25 25 25 25 25 26 27 27 28 28 29 29 30 30 30 30 31 31 31 31 32 32 33 33 34 34 34 35 36 37 38 38 39 40 41 41 41 41 40 39 38 38 38 39 40 41
39 37 34 32 31 30 28 27 26 26 26 28 30 31 31 31 30 30 31 28 27 26 28 28 28 27 29 30 30 29 27 25 24 24 24 23 23 23 23 22 22 22 22 22 22 21 21 22 23 25 27 28 27 26 25 25 25 25 26 26 26 26 26 27 28 29 29 30 30 30 30 30 31 31 31 31 32 32 33 34 35 35 36 36 37 38 40 40 41 42 42 42 42 42 41 41 41 40 40 40 41 42 43
41 38 35 33 33 32 29 28 27 27 28 30 32 32 31 32 31 31 30 28 28 28 28 28 27 26 28 29 29 28 26 25 25 24 24 24 23 23 23 22 22 22 22 23 22 22 22 23 24 26 27 27 26 26 25 26 26 26 26 26 26 26 26 27 28 29 30 30 31 31 31 31 31 31 32 32 33 34 35 36 37 38 38 38 39 40 41 42 43 43 43 43 43 42 42 42 42 42 42 43 43 43 44
43 40 35 34 33 33 31 30 30 29 30 32 33 33 32 32 31 30 29 28 27 28 28 27 26 25 26 27 27 26 25 25 25 24 24 23 23 23 23 23 22 22 22 22 22 22 23 24 25 26 27 27 27 26 26 26 26 26 26 26 26 26 27 27 27 28 30 32 32 32 32 32 32 33 33 34 35 36 37 38 39 40 40 40 41 42 42 43 43 44 44 43 43 43 42 42 42 43 43 44 44 45 45
44 41 37 35 34 34 33 33 32 31 31 33 34 34 33 33 31 30 29 27 27 27 26 25 25 25 25 25 25 25 25 24 24 24 23 23 23 24 24 24 23 22 22 22 22 22 23 23 24 25 26 27 28 27 27 26 26 26 26 26 26 26 27 27 27 28 29 33 35 34 33 33 33 34 35 36 37 38 39 40 40 41 42 42 43 43 43 44 44 44 44 44 44 44 43 43 43 43 43 44 45 46 46
45 42 39 38 37 36 35 35 34 33 32 33 34 34 34 33 31 29 28 27 26 25 25 25 25 24 25 24 24 24 24 23 23 23 23 23 23 24 24 24 24 23 23 23 23 23 23 23 24 25 26 27 28 29 28 27 26 26 26 26 26 26 27 27 27 28 28 32 35 37 38 38 38 37 38 38 39 39 40 41 41 42 42 43 44 44 45 45 45 45 45 44 44 44 44 44 44 44 44 44 45 45 46
45 42 40 39 38 38 38 37 36 35 33 33 33 33 33 33 31 29 27 26 25 24 24 24 24 25 25 25 24 24 23 23 23 23 23 23 24 24 24 25 25 25 24 24 24 23 23 23 24 25 26 27 29 30 29 27 27 26 26 26 26 26 26 27 27 28 29 30 32 35 41 43 44 44 43 41 40 40 40 41 41 42 42 43 44 45 45 46 46 46 46 46 45 45 44 45 45 45 45 45 44 44 44
44 43 41 40 40 40 40 40 38 36 34 33 32 32 32 31 30 28 27 25 24 24 24 24 25 25 25 24 24 23 23 23 23 23 23 23 24 24 25 25 25 26 25 25 24 24 23 24 25 26 27 28 29 30 30 28 27 26 26 26 26 26 26 27 27 28 29 30 32 34 36 40 43 46 47 46 44 42 40 41 41 42 42 42 43 44 44 45 45 46 46 46 46 45 45 45 44 44 44 44 44 43 42
44 43 42 41 42 42 42 42 40 38 34 32 32 31 31 31 29 28 26 25 24 24 25 25 25 25 24 24 24 23 23 23 23 23 23 24 24 25 25 25 26 26 26 26 26 25 25 25 25 27 28 29 29 30 30 29 28 27 26 26 26 26 26 27 28 29 30 31 33 35 36 38 40 42 45 47 47 46 45 44 44 43 42 43 43 44 44 44 45 45 45 45 45 46 46 46 46 45 45 44 43 42 41
44 44 43 43 43 44 44 43 42 39 35 32 31 31 30 30 29 27 25 25 25 25 25 25 25 25 25 25 24 23 23 23 23 23 23 24 24 24 25 25 26 27 27 27 27 27 27 27 27 27 28 28 29 29 29 30 30 29 27 26 26 26 27 27 28 29 31 32 34 36 37 38 39 40 41 44 47 48 49 48 47 47 46 45 45 45 45 45 46 46 46 45 45 45 46 47 47 47 47 45 43 42 41
44 44 44 45 45 45 45 44 42 39 35 32 30 30 30 29 29 27 25 25 25 25 26 27 27 27 26 26 25 24 23 23 23 24 25 26 26 25 25 25 26 27 27 28 29 29 29 29 29 29 28 28 28 28 29 29 30 29 28 26 26 26 27 28 29 30 32 34 35 37 38 39 40 40 41 42 44 46 49 49 49 50 50 50 49 48 48 48 48 48 48 48 47 46 45 45 46 47 47 46 44 42 41
44 45 46 47 47 47 46 45 42 39 35 31 30 30 30 29 28 27 26 25 26 26 27 28 28 28 28 27 26 24 23 23 24 24 25 28 29 28 27 26 27 27 27 28 30 31 31 31 30 30 30 29 29 28 28 29 29 29 28 27 26 27 28 29 30 32 33 35 36 37 39 39 40 41 41 42 43 43 45 46 48 49 51 52 52 52 51 51 51 50 50 49 49 48 48 46 46 47 48 47 45 42 41
45 46 48 49 49 49 47 46 43 39 34 31 30 30 29 29 28 27 26 25 26 27 29 29 29 28 27 27 26 25 24 24 23 24 24 27 29 30 29 28 28 29 28 29 30 31 31 31 31 30 30 30 30 29 29 29 29 29 29 28 27 28 29 30 31 33 34 36 37 38 39 40 41 42 42 43 43 44 44 45 46 47 48 49 51 52 52 53 53 52 51 51 50 50 49 48 47 47 48 47 45 43 41
45 47 49 50 51 50 48 46 43 38 33 30 29 29 28 28 27 26 25 26 27 28 28 28 28 27 26 26 26 26 25 24 24 24 25 26 27 29 29 29 30 31 31 31 30 30 30 30 30 31 31 31 30 30 30 29 29 29 29 30 30 30 30 32 33 34 35 37 38 39 40 40 41 42 43 43 44 44 45 45 45 46 46 47 48 49 50 51 52 52 52 52 51 51 50 50 49 49 49 48 46 44 42
46 48 49 50 51 50 49 47 43 38 32 29 28 28 27 27 26 26 25 26 27 27 27 27 26 26 25 25 25 25 25 25 26 26 26 27 28 29 30 29 31 32 32 32 31 31 30 29 30 30 31 31 30 29 29 29 29 29 29 30 31 32 32 33 35 36 37 37 38 39 40 40 41 42 43 44 44 45 45 45 45 45 46 46 46 46 47 47 48 49 50 51 51 51 50 50 50 49 48 48 46 45 44
46 48 49 49 49 48 47 46 43 38 32 29 27 26 26 25 25 25 25 26 27 26 26 26 26 25 25 25 25 25 26 26 27 28 28 30 32 33 33 33 33 33 32 32 32 31 30 29 29 30 31 31 29 28 28 28 28 28 29 30 32 33 34 36 36 37 38 38 38 39 40 41 42 43 43 44 44 45 45 45 45 45 45 45 45 45 45 46 46 47 47 48 49 50 50 49 49 48 48 48 47 47 47
46 47 48 47 47 46 45 44 42 38 32 29 26 25 24 24 24 25 26 26 27 26 25 25 25 25 25 25 25 25 26 26 27 28 29 32 34 36 36 37 36 35 33 32 32 31 30 30 30 31 31 31 29 28 27 27 27 28 28 30 32 34 36 36 37 38 38 39 39 39 40 41 42 43 43 44 44 45 45 44 44 44 44 44 44 44 44 45 46 46 47 47 48 48 49 49 48 48 48 48 48 48 47
45 46 46 45 44 44 43 42 40 36 32 28 25 23 23 24 25 26 26 27 27 26 25 25 25 26 26 26 26 26 26 26 27 28 29 32 34 36 37 38 38 38 36 34 33 32 31 31 31 32 33 32 30 29 27 26 26 27 28 30 32 34 35 36 37 37 38 39 40 40 40 41 42 42 43 44 44 44 44 44 44 44 43 43 43 44 44 45 46 47 47 48 48 48 49 49 49 49 49 49 49 48 47
46 45 44 43 43 43 42 40 37 34 32 28 25 23 23 24 26 27 27 27 27 27 26 25 25 26 27 27 27 27 28 29 29 29 29 31 34 36 38 39 39 39 38 37 35 34 33 32 32 32 32 32 31 30 28 26 26 26 27 30 32 33 35 36 36 37 38 39 40 41 40 41 41 42 43 44 44 44 44 44 44 44 44 44 44 45 45 46 47 47 48 49 49 49 49 49 49 50 49 49 49 48 47
48 46 43 43 43 42 41 38 34 32 30 27 25 24 24 26 27 27 27 27 27 27 27 26 26 26 27 29 30 30 30 32 32 32 32 33 35 37 38 39 40 40 39 39 38 37 35 34 33 32 31 30 29 29 28 27 27 27 28 30 32 33 35 35 36 37 38 39 40 41 41 41 41 42 43 44 45 45 45 45 45 45 45 46 46 46 47 47 48 48 49 49 50 50 50 50 50 50 50 50 49 48 47
49 47 44 43 43 42 39 35 32 29 27 26 25 26 27 28 29 28 26 26 27 27 28 26 26 26 27 29 32 33 33 34 35 35 36 36 37 38 39 40 40 40 40 40 40 39 38 35 34 32 30 28 27 27 27 27 28 29 31 31 32 33 34 35 36 37 38 39 40 41 41 41 42 42 43 44 45 46 46 46 47 47 47 48 48 49 49 49 49 50 50 50 50 51 51 51 51 51 51 50 49 48 47
49 47 45 44 43 40 36 33 30 28 26 25 26 29 31 32 31 29 27 26 27 27 29 27 26 26 26 29 31 34 35 36 37 37 38 39 40 40 41 41 40 40 39 40 40 39 38 37 35 32 30 28 27 27 27 28 29 31 32 33 33 33 34 35 37 37 38 39 40 41 41 42 42 43 44 45 46 47 48 48 48 48 49 49 50 50 51 51 51 51 51 51 51 51 52 52 52 51 51 51 50 49 48
49 47 46 44 41 37 34 32 30 29 26 26 28 32 35 35 33 30 27 26 27 27 29 29 28 27 27 29 31 34 37 38 38 39 40 40 40 41 40 39 38 37 37 36 36 36 36 36 34 33 30 28 27 27 27 29 30 31 32 33 34 34 35 36 37 38 39 40 40 41 41 42 43 44 45 46 47 48 49 49 50 50 50 51 51 52 52 52 53 52 52 52 52 53 53 52 52 52 51 51 51 50 49
49 47 45 41 38 35 33 33 32 30 26 27 30 35 38 37 34 30 28 27 27 27 28 30 30 30 30 31 32 34 36 38 39 40 40 40 40 40 39 37 35 34 34 34 34 34 34 34 33 32 30 29 28 28 29 30 31 32 32 33 34 35 36 36 37 38 39 40 40 41 41 42 43 44 46 47 48 49 50 51 52 52 52 52 53 53 54 54 54 53 53 53 54 54 54 54 53 53 52 52 52 51 51
48 45 41 38 35 35 36 36 33 30 26 28 33 37 41 38 34 30 28 27 27 27 29 32 35 35 35 34 34 35 36 38 38 39 39 39 39 39 38 38 37 37 37 37 37 36 35 33 32 31 29 29 29 29 30 31 32 32 32 33 34 35 36 37 38 39 40 40 41 41 42 43 44 45 46 48 49 50 52 53 53 53 53 53 54 54 54 54 54 54 54 55 55 55 55 54 54 53 53 53 53 52 52
45 41 37 36 36 37 39 36 32 29 27 31 35 40 41 38 34 31 28 28 29 31 34 38 40 40 40 39 38 38 38 38 39 39 39 38 38 38 38 38 38 39 39 39 39 38 37 35 33 30 29 29 31 32 32 33 33 33 34 34 35 36 37 38 39 40 41 41 41 42 42 43 44 46 47 48 50 51 53 54 55 55 55 55 55 54 54 54 54 55 56 56 56 55 55 54 53 53 53 53 53 53 52
42 38 36 37 39 40 40 35 31 29 30 34 38 41 40 37 33 30 29 30 33 37 42 45 45 45 44 42 41 40 40 40 40 40 39 38 38 38 38 38 38 38 38 38 38 39 39 36 34 32 32 34 35 36 36 35 36 36 37 37 37 37 38 40 42 43 43 42 42 42 43 44 45 46 47 49 51 52 54 55 56 57 57 57 56 55 53 53 54 56 57 57 57 56 55 54 54 53 53 53 52 52 52
40 38 37 40 41 41 38 34 32 32 34 38 41 41 38 35 32 31 31 34 40 45 50 51 50 48 46 44 42 41 40 41 41 40 38 38 39 39 39 39 38 36 35 35 37 39 39 37 35 35 37 40 42 42 41 40 41 41 41 40 40 40 41 42 44 45 44 43 42 43 44 45 46 47 48 50 52 54 55 56 58 59 59 59 59 57 55 54 55 56 57 58 57 56 56 55 54 53 53 52 52 52 51
40 39 40 42 42 40 37 34 34 35 38 41 41 39 35 33 32 33 35 41 48 54 57 56 54 50 47 44 42 41 41 42 41 40 38 38 39 40 40 40 38 36 34 34 35 37 39 40 41 42 44 46 47 47 46 46 46 47 47 46 44 44 44 45 46 45 43 42 43 44 45 46 47 48 50 52 54 56 57 58 60 61 62 61 61 60 58 56 55 55 57 57 57 56 56 55 55 54 53 53 52 51 50
42 42 42 43 41 39 36 35 36 39 42 42 40 37 34 34 35 39 43 49 55 60 61 59 55 51 47 43 41 40 41 41 40 40 39 38 39 40 40 38 37 37 39 39 38 37 36 39 44 47 50 51 52 52 52 52 52 52 53 52 50 49 48 47 45 43 42 42 43 45 46 48 49 50 52 54 56 57 59 60 62 63 64 63 62 61 60 57 55 54 55 55 56 56 56 55 55 54 54 53 52 50 48
43 43 44 43 41 39 38 38 40 42 43 42 40 38 37 39 43 46 50 55 60 62 62 59 55 50 46 43 41 40 40 40 40 39 39 39 39 39 39 38 38 39 41 41 41 40 38 40 44 48 51 53 55 56 56 56 57 57 58 57 56 54 51 48 46 43 43 44 45 46 48 49 51 53 55 57 58 60 60 62 64 65 65 64 62 60 59 56 54 54 54 54 55 55 55 55 55 54 54 53 52 49 46
44 45 45 44 43 42 42 43 44 44 45 44 43 43 44 47 50 53 55 59 62 63 62 58 53 49 45 43 41 40 39 39 40 40 40 39 38 37 37 39 41 42 43 43 43 43 43 47 50 52 53 53 55 57 58 58 59 60 61 61 60 59 55 51 47 45 45 46 48 49 51 52 54 55 57 58 60 61 62 63 64 64 63 62 60 59 58 56 54 54 53 54 54 55 55 55 55 55 54 53 51 48 44
46 47 47 47 47 47 46 47 47 48 48 47 48 49 51 54 56 59 61 62 63 63 60 56 51 47 44 42 41 40 40 40 40 41 41 40 39 38 37 39 42 44 45 46 48 50 52 54 57 59 58 56 57 58 59 60 60 61 62 62 61 60 56 53 50 49 49 51 52 53 54 55 56 57 58 60 61 62 63 63 62 61 59 59 58 58 57 56 54 53 53 54 54 55 55 56 56 55 55 53 50 46 42
48 49 50 51 51 52 52 51 51 51 52 52 52 53 55 58 60 62 65 65 64 63 59 54 49 45 42 41 40 39 40 40 40 41 41 41 40 40 41 41 42 44 49 52 55 57 60 60 61 62 60 61 59 59 60 61 62 63 63 63 63 61 59 56 54 53 54 55 56 56 57 57 58 58 59 60 62 63 62 61 60 59 58 57 57 57 57 56 55 54 54 54 55 56 57 58 57 56 54 51 48 44 39
50 52 54 56 57 57 57 56 55 55 55 55 55 55 57 59 62 64 66 66 65 62 58 52 47 43 41 39 38 38 39 39 40 41 42 42 43 43 44 44 45 47 50 53 56 59 62 63 63 63 63 64 63 61 61 63 64 64 65 65 64 63 61 59 58 57 57 58 58 59 59 59 59 59 60 61 62 62 61 59 58 56 55 55 56 56 57 56 56 56 56 57 58 59 60 60 58 56 53 49 45 40 36
55 57 59 61 62 62 62 61 60 60 59 58 58 58 58 61 63 65 67 66 64 60 55 49 45 42 40 39 39 38 39 40 41 42 43 45 45 46 47 48 49 51 52 55 57 59 61 63 64 65 66 66 66 65 64 65 65 66 66 66 65 64 63 61 60 60 59 60 60 61 61 61 60 60 61 62 62 61 59 57 56 54 53 53 54 55 57 57 57 57 58 60 61 62 62 61 59 56 52 47 41 37 33
59 62 65 66 66 66 65 65 64 64 63 62 62 62 62 64 65 66 66 65 61 57 51 47 44 42 41 40 40 39 39 41 42 43 45 47 49 50 50 51 52 52 52 55 57 59 60 60 61 63 65 66 67 68 68 67 67 67 68 67 67 66 64 63 62 61 61 61 61 62 62 61 61 61 62 62 61 59 58 56 55 53 53 53 54 55 56 57 58 59 60 61 61 62 61 60 57 53 49 43 37 34 31